Regional Weather Roundup
Issued by NWS

Home | Current Version | Previous Version | Graphics & Text | Print | Product List | Glossary On
Versions: 1 2 3 4 5 6 7 8 9 10 11 12 13 14 15 16 17 18 19 20 21 22 23 24 25 26 27 28 29 30 31 32 33 34 35 36 37 38 39 40 41 42 43 44 45 46 47 48 49 50
000
ASUS45 KABQ 170701
RWRNM
WEATHER ROUNDUP FOR NEW MEXICO
NATIONAL WEATHER SERVICE ALBUQUERQUE NM
100 AM MDT THU APR 17 2014

NOTE: "FAIR" MEANS FEW OR NO CLOUDS BELOW 12,000 FEET AGL WITH NO
       SIGNIFICANT WEATHER OR OBSTRUCTIONS TO VISION.

      THIS PRODUCT IS RELEASED AS TWO VERSIONS.  ONE VERSION NEAR
      THE TOP OF THE HOUR CONTAINING PRELIMINARY DATA FROM ALBUQUERQUE
      AND OTHER STATIONS.  A FINAL VERSION WITH ADDITIONAL DATA IS
      ISSUED ABOUT 10 MINUTES AFTER THE HOUR.

NMZ501-503-504-510>518-170800-
NORTHWEST PLATEAU/NORTHCENTRAL MOUNTAINS

CITY           SKY/WX    TMP DP  RH WIND       PRES   REMARKS
FARMINGTON     CLEAR     41  21  44 W6        29.99R
SANTA FE       MOCLDY    46  30  53 S7        30.02R
TAOS           CLOUDY    39  34  81 N9        30.11R WCI  33
ANGEL FIRE     LGT SNOW  33  32  98 S6        30.12R WCI  27

$$
NMZ402-403-502-505>509-170800-
WESTCENTRAL MOUNTAINS/SOUTHWEST MOUNTAINS

CITY           SKY/WX    TMP DP  RH WIND       PRES   REMARKS
GALLUP         CLEAR     32  12  43 CALM      30.05R
SILVER CITY    CLEAR     45   0  15 N10       29.99R

$$
NMZ407-409-411-412-170800-
SOUTHERN DESERTS

CITY           SKY/WX    TMP DP  RH WIND       PRES   REMARKS
DEMING         CLEAR     57   1  10 W10       29.91R
LAS CRUCES     PTCLDY    57   0  10 W8        29.90R
HOLLOMAN AFB   CLOUDY    69   8   9 NE10      29.84R
T OR C         CLEAR     62   9  12 NW8       29.91R

$$
NMZ519>523-170800-
CENTRAL VALLEYS/CENTRAL HIGHLANDS

CITY           SKY/WX    TMP DP  RH WIND       PRES   REMARKS
ALBUQUERQUE    CLOUDY    56  24  29 NE7       30.00R
DOUBLE EAGLE   CLOUDY    47  23  38 N6        30.02R
CLINES CORNERS CLOUDY    45  27  49 E10       30.04R
BELEN          FAIR      53  23  30 NW8       29.98R
SOCORRO        NOT AVBL

$$
NMZ524>526-539-540-170800-
SOUTHCENTRAL MOUNTAINS

CITY           SKY/WX    TMP DP  RH WIND       PRES   REMARKS
RUIDOSO        NOT AVBL

$$
NMZ527>531-170800-
NORTHEAST HIGHLANDS/NORTHEAST PLAINS

CITY           SKY/WX    TMP DP  RH WIND       PRES   REMARKS
LAS VEGAS      CLOUDY    41  26  55 E14       30.10R
RATON          FLURRIES  35  33  92 N12       30.12R WCI  27
CLAYTON        CLOUDY    44  29  55 NE22      30.10R

$$
NMZ532>537-170800-
EASTCENTRAL PLAINS

CITY           SKY/WX    TMP DP  RH WIND       PRES   REMARKS
TUCUMCARI      MOCLDY    52  27  38 NE23G35   30.00R
CANNON AFB     CLEAR     51  28  40 N25G37    29.91R
CLOVIS AIRPORT MOCLDY    52  27  37 N24G31    29.92R

$$
NMZ028-029-538-170800-
SOUTHEAST PLAINS

CITY           SKY/WX    TMP DP  RH WIND       PRES   REMARKS
ROSWELL        CLOUDY    60  26  27 N32G40    29.89R
CARLSBAD       MOCLDY    59  30  33 S9        29.80R
HOBBS          CLEAR     54  32  43 S10       29.83R


$$



USA.gov is the U.S. government's official web portal to all federal, state and local government web resources and services.